Location: Sofia
(42.6977°N, 23.3219°E)
Time: 13:52:50
(UTC+03:00)

NOAA 15 - Pass Details

Date: 28 February 2024
Orbit: 795 x 811 km, 98.6° (Epoch: 13 April)

Event Time Altitude Azimuth Distance (km) Brightness Sun altitude
Rises 20:03:43 0° 192° (SSW) 3,301 7.8 -20.8°
Reaches altitude 10° 20:06:17 10° 202° (SSW) 2,378 7.2 -21.3°
Maximum altitude 20:10:55 31° 264° (W) 1,380 6.4 -22.2°
Drops below altitude 10° 20:15:37 10° 326° (NNW) 2,401 7.6 -23.0°
Sets 20:18:14 0° 337° (NNW) 3,339 8.3 -23.5°
